Location: Eldred Sherwood Park Lake Dam
(42.9416°N, 93.5655°W)
Time: 01:06:03
(UTC+00:00)

Envisat - Visible Passes

Search period start: 13 October 2024 00:00
Search period end: 23 October 2024 00:00
Orbit: 762 x 764 km, 98.3° (Epoch: 12 October)

Date Brightness Start Highest point End Pass type
(mag) Time Alt. Az. Time Alt. Az. Time Alt. Az.
13 Oct 6.0 08:12:40 10° NE 08:12:53 11° NE 08:12:53 11° NE visible
13 Oct 4.3 09:50:22 10° N 09:53:01 30° N 09:53:01 30° N visible
14 Oct 4.8 09:12:50 10° NNE 09:14:57 25° NNE 09:14:57 25° NNE visible
14 Oct 4.7 10:53:07 10° NNW 10:55:06 16° NW 10:55:06 16° NW visible
15 Oct 5.6 08:35:50 10° NE 08:36:53 15° NE 08:36:53 15° NE visible
15 Oct 4.4 10:14:38 10° N 10:17:01 24° NNW 10:17:01 24° NNW visible
16 Oct 4.6 09:36:48 10° N 09:38:57 26° N 09:38:57 26° N visible
16 Oct 5.1 11:19:02 10° NW 11:19:06 10° NW 11:19:06 10° NW visible
17 Oct 5.3 08:59:25 10° NNE 09:00:53 19° NNE 09:00:53 19° NNE visible
17 Oct 4.7 10:39:08 10° NNW 10:41:01 18° NNW 10:41:01 18° NNW visible
18 Oct 6.0 08:22:42 10° NE 08:22:49 11° NE 08:22:49 11° NE visible
18 Oct 4.6 10:00:57 10° N 10:02:56 23° N 10:02:56 23° N visible
19 Oct 5.0 09:23:16 10° NNE 09:24:52 21° NNE 09:24:52 21° NNE visible
19 Oct 5.0 11:04:08 10° NNW 11:05:01 12° NW 11:05:01 12° NW visible
20 Oct 5.7 08:46:05 10° NNE 08:46:48 14° NE 08:46:48 14° NE visible
20 Oct 4.8 10:25:17 10° N 10:26:56 18° NNW 10:26:56 18° NNW visible
21 Oct 4.9 09:47:18 10° N 09:48:51 20° N 09:48:51 20° N visible
22 Oct 5.4 09:09:47 10° NNE 09:10:46 16° NNE 09:10:46 16° NNE visible
22 Oct 5.0 10:49:56 10° NNW 10:50:54 13° NNW 10:50:54 13° NNW visible
